TimeCDT,TemperatureF,Dew PointF,Humidity,Sea Level PressureIn,VisibilityMPH,Wind Direction,Wind SpeedMPH,Gust SpeedMPH,PrecipitationIn,Events,Conditions,WindDirDegrees,DateUTC
12:15 AM,64.4,42.8,45,29.82,10.0,SSE,13.8,-,N/A,,Clear,150,2013-09-23 05:15:00
12:35 AM,64.4,42.8,45,29.82,10.0,SSE,13.8,-,N/A,,Clear,160,2013-09-23 05:35:00
12:55 AM,62.6,44.6,52,29.82,10.0,South,12.7,-,N/A,,Clear,170,2013-09-23 05:55:00
1:15 AM,62.6,44.6,52,29.82,10.0,SSE,13.8,-,N/A,,Clear,160,2013-09-23 06:15:00
1:35 AM,60.8,44.6,55,29.82,10.0,SSE,8.1,-,N/A,,Clear,160,2013-09-23 06:35:00
1:55 AM,59.0,44.6,59,29.81,10.0,SSE,9.2,-,N/A,,Clear,160,2013-09-23 06:55:00
2:15 AM,59.0,44.6,59,29.81,10.0,SSE,11.5,-,N/A,,Clear,160,2013-09-23 07:15:00
2:35 AM,60.8,44.6,55,29.80,10.0,SSE,13.8,-,N/A,,Clear,150,2013-09-23 07:35:00
2:55 AM,59.0,46.4,63,29.81,10.0,SSE,10.4,-,N/A,,Clear,150,2013-09-23 07:55:00
3:15 AM,59.0,46.4,63,29.81,10.0,SSE,10.4,-,N/A,,Clear,150,2013-09-23 08:15:00
3:35 AM,60.8,46.4,59,29.81,10.0,SSE,6.9,-,N/A,,Scattered Clouds,150,2013-09-23 08:35:00
3:55 AM,59.0,46.4,63,29.81,10.0,SSE,9.2,-,N/A,,Scattered Clouds,150,2013-09-23 08:55:00
4:15 AM,59.0,46.4,63,29.79,10.0,SE,15.0,-,N/A,,Scattered Clouds,140,2013-09-23 09:15:00
4:35 AM,59.0,46.4,63,29.81,10.0,South,6.9,-,N/A,,Scattered Clouds,190,2013-09-23 09:35:00
4:55 AM,55.4,46.4,72,29.81,10.0,South,3.5,-,N/A,,Scattered Clouds,170,2013-09-23 09:55:00
5:15 AM,53.6,46.4,77,29.82,10.0,SSW,6.9,-,N/A,,Scattered Clouds,200,2013-09-23 10:15:00
5:35 AM,53.6,46.4,77,29.82,10.0,South,5.8,-,N/A,,Scattered Clouds,170,2013-09-23 10:35:00
5:55 AM,53.6,46.4,77,29.81,10.0,SSE,6.9,-,N/A,,Scattered Clouds,150,2013-09-23 10:55:00
6:15 AM,53.6,46.4,77,29.81,10.0,SSE,10.4,-,N/A,,Scattered Clouds,160,2013-09-23 11:15:00
6:35 AM,55.4,46.4,72,29.82,10.0,SSE,10.4,-,N/A,,Scattered Clouds,160,2013-09-23 11:35:00
6:55 AM,53.6,46.4,77,29.84,10.0,WNW,4.6,-,N/A,,Scattered Clouds,290,2013-09-23 11:55:00
7:15 AM,53.6,46.4,77,29.83,10.0,SSE,6.9,-,N/A,,Scattered Clouds,150,2013-09-23 12:15:00
7:35 AM,51.8,46.4,82,29.84,10.0,SE,5.8,-,N/A,,Scattered Clouds,140,2013-09-23 12:35:00
7:55 AM,53.6,46.4,77,29.84,10.0,SE,5.8,-,N/A,,Clear,140,2013-09-23 12:55:00
8:15 AM,53.6,46.4,77,29.84,10.0,SSE,9.2,-,N/A,,Clear,160,2013-09-23 13:15:00
8:35 AM,55.4,46.4,72,29.84,10.0,SSE,10.4,-,N/A,,Clear,150,2013-09-23 13:35:00
8:55 AM,57.2,46.4,67,29.84,10.0,SSE,11.5,-,N/A,,Clear,150,2013-09-23 13:55:00
9:15 AM,59.0,48.2,67,29.84,10.0,SSE,12.7,-,N/A,,Clear,160,2013-09-23 14:15:00
9:35 AM,60.8,48.2,63,29.84,10.0,South,11.5,-,N/A,,Clear,170,2013-09-23 14:35:00
9:55 AM,62.6,46.4,55,29.85,10.0,South,12.7,-,N/A,,Clear,170,2013-09-23 14:55:00
10:15 AM,64.4,46.4,52,29.84,10.0,South,16.1,-,N/A,,Clear,170,2013-09-23 15:15:00
10:35 AM,66.2,46.4,49,29.84,10.0,SSE,19.6,-,N/A,,Clear,160,2013-09-23 15:35:00
10:55 AM,69.8,46.4,43,29.83,10.0,South,17.3,21.9,N/A,,Clear,170,2013-09-23 15:55:00
11:15 AM,71.6,42.8,35,29.83,10.0,South,20.7,32.2,N/A,,Clear,180,2013-09-23 16:15:00
11:35 AM,73.4,42.8,33,29.83,10.0,South,23.0,29.9,N/A,,Clear,190,2013-09-23 16:35:00
11:55 AM,73.4,42.8,33,29.82,10.0,South,23.0,-,N/A,,Clear,180,2013-09-23 16:55:00
12:15 PM,73.4,44.6,36,29.81,10.0,South,23.0,28.8,N/A,,Clear,180,2013-09-23 17:15:00
12:35 PM,75.2,44.6,34,29.80,10.0,South,25.3,29.9,N/A,,Clear,170,2013-09-23 17:35:00
12:55 PM,77.0,42.8,29,29.79,10.0,South,21.9,29.9,N/A,,Clear,190,2013-09-23 17:55:00
1:15 PM,78.8,42.8,28,29.78,10.0,South,25.3,33.4,N/A,,Clear,170,2013-09-23 18:15:00
1:35 PM,77.0,42.8,29,29.77,10.0,South,25.3,31.1,N/A,,Clear,180,2013-09-23 18:35:00
1:55 PM,78.8,42.8,28,29.76,10.0,South,23.0,32.2,N/A,,Clear,170,2013-09-23 18:55:00
2:15 PM,78.8,42.8,28,29.75,10.0,South,21.9,31.1,N/A,,Clear,170,2013-09-23 19:15:00
2:35 PM,80.6,42.8,26,29.75,10.0,South,24.2,31.1,N/A,,Clear,190,2013-09-23 19:35:00
2:55 PM,80.6,41.0,24,29.75,10.0,South,17.3,25.3,N/A,,Clear,180,2013-09-23 19:55:00
3:15 PM,80.6,41.0,24,29.75,10.0,South,16.1,27.6,N/A,,Clear,190,2013-09-23 20:15:00
3:35 PM,82.4,41.0,23,29.75,10.0,South,16.1,21.9,N/A,,Clear,190,2013-09-23 20:35:00
3:55 PM,82.4,41.0,23,29.75,10.0,South,18.4,25.3,N/A,,Clear,190,2013-09-23 20:55:00
4:15 PM,82.4,41.0,23,29.75,10.0,South,16.1,24.2,N/A,,Clear,190,2013-09-23 21:15:00
4:35 PM,82.4,41.0,23,29.75,10.0,South,15.0,23.0,N/A,,Clear,190,2013-09-23 21:35:00
4:55 PM,82.4,41.0,23,29.76,10.0,SSW,12.7,-,N/A,,Scattered Clouds,200,2013-09-23 21:55:00
5:15 PM,82.4,41.0,23,29.75,10.0,South,12.7,23.0,N/A,,Scattered Clouds,180,2013-09-23 22:15:00
5:35 PM,82.4,41.0,23,29.75,10.0,South,17.3,23.0,N/A,,Clear,190,2013-09-23 22:35:00
5:55 PM,82.4,42.8,25,29.76,10.0,South,12.7,-,N/A,,Clear,180,2013-09-23 22:55:00
6:15 PM,82.4,42.8,25,29.77,10.0,South,11.5,17.3,N/A,,Clear,170,2013-09-23 23:15:00
6:35 PM,82.4,42.8,25,29.77,10.0,South,11.5,-,N/A,,Clear,180,2013-09-23 23:35:00
6:55 PM,80.6,42.8,26,29.78,10.0,South,11.5,-,N/A,,Clear,170,2013-09-23 23:55:00
7:15 PM,78.8,42.8,28,29.79,10.0,South,8.1,-,N/A,,Clear,170,2013-09-24 00:15:00
7:35 PM,77.0,44.6,32,29.79,10.0,SSE,6.9,-,N/A,,Clear,160,2013-09-24 00:35:00
7:55 PM,75.2,44.6,34,29.80,10.0,SSE,6.9,-,N/A,,Clear,150,2013-09-24 00:55:00
8:15 PM,73.4,44.6,36,29.81,10.0,SE,4.6,-,N/A,,Clear,140,2013-09-24 01:15:00
8:35 PM,73.4,44.6,36,29.81,10.0,SE,4.6,-,N/A,,Clear,140,2013-09-24 01:35:00
8:55 PM,71.6,44.6,38,29.82,10.0,SE,5.8,-,N/A,,Clear,140,2013-09-24 01:55:00
9:15 PM,71.6,44.6,38,29.84,10.0,SE,5.8,-,N/A,,Clear,130,2013-09-24 02:15:00
9:35 PM,71.6,44.6,38,29.84,10.0,SE,6.9,-,N/A,,Clear,140,2013-09-24 02:35:00
9:55 PM,69.8,46.4,43,29.86,10.0,SSE,4.6,-,N/A,,Clear,150,2013-09-24 02:55:00
10:15 PM,68.0,46.4,46,29.86,10.0,SSE,6.9,-,N/A,,Clear,150,2013-09-24 03:15:00
10:35 PM,68.0,46.4,46,29.88,10.0,SSE,6.9,-,N/A,,Scattered Clouds,150,2013-09-24 03:35:00
10:55 PM,68.0,48.2,49,29.88,10.0,SSE,8.1,-,N/A,,Scattered Clouds,160,2013-09-24 03:55:00
11:15 PM,66.2,48.2,52,29.89,10.0,SSE,6.9,-,N/A,,Scattered Clouds,160,2013-09-24 04:15:00
11:35 PM,68.0,48.2,49,29.93,10.0,North,13.8,-,N/A,,Clear,350,2013-09-24 04:35:00
11:55 PM,68.0,48.2,49,29.93,10.0,North,6.9,-,N/A,,Scattered Clouds,360,2013-09-24 04:55:00